This is the latest recevied weather packets stored in our database for station/object K7KAZ. If no packets are shown the sender has not sent any weather packets the latest 10 day(s).
| Time | Temp. | Humidity | Pressure | Rain* | Wind** | Luminosity | Snow |
|---|---|---|---|---|---|---|---|
| 1777929926 | 23.33° C | 41% | 1014.8 hPa | 0 mm | - | 391 W/m² | - |
| 1777929623 | 22.78° C | 42% | 1014.9 hPa | 0 mm | - | 321 W/m² | - |
| 1777929320 | 23.33° C | 40% | 1015.2 hPa | 0 mm | - | 292 W/m² | - |
| 1777929017 | 23.33° C | 40% | 1015.2 hPa | 0 mm | - | 286 W/m² | - |
| 1777928714 | 22.78° C | 42% | 1015.3 hPa | 0 mm | - | 268 W/m² | - |
| 1777928411 | 23.33° C | 41% | 1015.5 hPa | 0 mm | - | 279 W/m² | - |
| 1777928109 | 23.33° C | 42% | 1015.5 hPa | 0 mm | - | 299 W/m² | - |
| 1777927806 | 22.78° C | 43% | 1015.3 hPa | 0 mm | - | 338 W/m² | - |
| 1777927504 | 23.33° C | 41% | 1015.5 hPa | 0 mm | - | 355 W/m² | - |
| 1777927203 | 23.89° C | 41% | 1015.3 hPa | 0 mm | - | 405 W/m² | - |
| 1777926901 | 22.78° C | 43% | 1015.5 hPa | 0 mm | - | 330 W/m² | - |
| 1777926596 | 23.33° C | 43% | 1015.6 hPa | 0 mm | - | 708 W/m² | - |
| 1777926293 | 23.89° C | 42% | 1015.8 hPa | 0 mm | - | 648 W/m² | - |
| 1777925990 | 23.33° C | 44% | 1015.5 hPa | 0 mm | - | 602 W/m² | - |
| 1777925687 | 23.33° C | 44% | 1015.8 hPa | 0 mm | - | 497 W/m² | - |
| 1777925385 | 22.78° C | 45% | 1015.6 hPa | 0 mm | - | 424 W/m² | - |
| 1777925081 | 22.78° C | 44% | 1015.9 hPa | 0 mm | - | 338 W/m² | - |
| 1777924778 | 22.78° C | 44% | 1015.6 hPa | 0 mm | - | 351 W/m² | - |
| 1777924474 | 22.22° C | 46% | 1015.3 hPa | 0 mm | - | 358 W/m² | - |
| 1777924171 | 22.78° C | 46% | 1015.3 hPa | 0 mm | - | 316 W/m² | - |
| 1777923867 | 22.22° C | 46% | 1015 hPa | 0 mm | - | 379 W/m² | - |
| 1777923563 | 22.22° C | 47% | 1015.2 hPa | 0 mm | - | 382 W/m² | - |
| 1777923260 | 22.22° C | 47% | 1015.7 hPa | 0 mm | - | 340 W/m² | - |
| 1777922959 | 22.78° C | 46% | 1015.6 hPa | 0 mm | - | 330 W/m² | - |
| 1777922656 | 22.22° C | 47% | 1015.1 hPa | 0 mm | - | 303 W/m² | - |
* Rain latest hour (hover to see other rain measurements)
** Current wind speed in m/s (hover to see current wind gust speed)